[Date Prev][Date Next][Thread Prev][Thread Next] - [Date Index][Thread Index][Author Index]

2 Line ISS Keps 7-3



ISS
1 25544U 98067A   05184.06144612  .00009522  00000-0  74432-4 0  8274
2 25544 051.6440 179.5339 0001521 289.5701 141.1694 15.72430503378183
----
Via the sarex mailing list at AMSAT.ORG courtesy of AMSAT-NA.
To unsubscribe, send "unsubscribe sarex" to Majordomo@amsat.org



AMSAT Top AMSAT Home